Список аэропортов
Фактическая погода:

09 декабря, 17:55
Температура: +8°C (+3.8*)
Ветер: северный 9 м/с
Давление: *754 мм
неб. 600 м
Время (МСК)Темп. СВетерВлажностьДавлениеОблачностьОсадки
15:00+9СЗ, 3 м/с80%998 гПаоблачнодождь
16:00+9СЗ, 6 м/с78%1000 гПаоблачнодождь
17:00+8СЗ, 11 м/с73%1003 гПаоблачносл. дождь
18:00+8СЗ, 11 м/с76%1006 гПаоблачно
19:00+8СЗ, 10 м/с64%1008 гПамалооблачно
20:00+8СЗ, 9 м/с63%1010 гПамалооблачно
21:00+8СЗ, 9 м/с64%1012 гПаясно
22:00+7СЗ, 8 м/с59%1014 гПас прояснениями
23:00+7СЗ, 8 м/с64%1016 гПас прояснениями
10 декабря
00:00+7СЗ, 8 м/с58%1017 гПаоблачно
01:00+7СЗ, 8 м/с58%1018 гПаоблачно
02:00+7СЗ, 7 м/с58%1019 гПаоблачно
03:00+7СЗ, 5 м/с59%1020 гПаоблачно
04:00+7СЗ, 4 м/с60%1020 гПаоблачно
05:00+7СЗ, 4 м/с59%1021 гПаоблачно
06:00+7СЗ, 3 м/с61%1021 гПаоблачно
07:00+6З, 1 м/с67%1021 гПас прояснениями
08:00+6ЮЗ, 2 м/с68%1021 гПаоблачно
09:00+5Ю, 2 м/с75%1021 гПаоблачно
10:00+5Ю, 3 м/с74%1021 гПаоблачно
11:00+6Ю, 4 м/с72%1021 гПаоблачно
12:00+6Ю, 6 м/с72%1021 гПаоблачно
13:00+6Ю, 7 м/с72%1020 гПаоблачно
14:00+6Ю, 8 м/с64%1018 гПаоблачно
15:00+6Ю, 8 м/с64%1018 гПаоблачно
16:00+7Ю, 9 м/с64%1017 гПаоблачно
17:00+7Ю, 9 м/с63%1015 гПаоблачносл. дождь
18:00+7Ю, 10 м/с62%1013 гПаоблачнодождь
19:00+6Ю, 11 м/с64%1012 гПаоблачносл. дождь
20:00+6Ю, 11 м/с65%1010 гПаоблачносл. дождь
21:00+6Ю, 11 м/с62%1009 гПаоблачносл. дождь
22:00+7Ю, 11 м/с64%1007 гПаоблачно
23:00+7Ю, 11 м/с66%1006 гПаоблачно
11 декабря
00:00+7Ю, 11 м/с70%1005 гПаоблачно
01:00+8Ю, 12 м/с73%1004 гПаоблачносл. дождь
02:00+8Ю, 12 м/с74%1002 гПаоблачносл. дождь
03:00+8Ю, 12 м/с78%1002 гПаоблачнодождь
04:00+8Ю, 11 м/с82%1002 гПаоблачнодождь
05:00+10ЮЗ, 9 м/с85%1003 гПаоблачнодождь
06:00+9ЮЗ, 9 м/с73%1004 гПаоблачно
07:00+9ЮЗ, 9 м/с67%1004 гПаоблачно
08:00+9ЮЗ, 7 м/с68%1005 гПамалооблачно
09:00+8ЮЗ, 5 м/с71%1005 гПаоблачно
10:00+9ЮЗ, 6 м/с69%1005 гПаоблачно
11:00+9ЮЗ, 7 м/с67%1006 гПаоблачно
12:00+8ЮЗ, 6 м/с71%1006 гПаоблачно
13:00+9ЮЗ, 6 м/с69%1006 гПаоблачно
14:00+9ЮЗ, 7 м/с68%1006 гПаоблачно
15:00+9ЮЗ, 6 м/с67%1006 гПас прояснениями